Theta_e
303 303 303 303 302 301 303 303 303 303 303 304 305 308 314 320 317 307 304 305 306 313 318 312 315 317 306 302 303 304 306 305 303 304 303 302 303 305 307 305 304 306 305 305 305 304 307 308 306 307 308 306 303 300 298 299 300 300 301 301 299 300 304 304 307 308 304 299 296 296 297 296 297 299 299 300 304 305 306 307 304 302 301 300 299 301 303
303 303 302 303 302 301 303 303 303 303 303 304 305 314 323 320 311 308 306 304 306 312 316 316 318 312 303 303 303 301 304 304 303 305 306 304 302 306 309 304 302 304 305 306 305 303 304 306 304 304 307 304 298 298 299 298 300 301 301 301 299 300 305 305 307 311 310 310 308 304 300 297 297 301 300 300 302 300 300 299 298 300 302 301 303 305 304
304 303 302 302 301 302 303 303 303 303 302 304 305 312 318 313 307 312 312 305 305 309 316 323 323 314 306 304 303 302 302 303 304 306 307 304 302 305 306 302 302 304 304 304 304 303 303 304 302 301 303 302 298 298 298 298 301 301 298 299 298 300 304 303 305 309 309 313 315 312 310 304 299 300 299 298 300 300 299 299 299 301 300 298 302 307 304
304 303 302 302 301 302 303 302 303 303 302 304 305 306 308 308 309 316 318 314 311 309 309 317 322 318 311 305 303 305 303 302 303 304 305 304 302 303 302 301 303 304 303 305 307 305 303 302 302 302 303 303 299 297 297 299 301 299 297 297 299 302 302 301 304 309 307 308 308 305 305 304 301 301 300 299 298 298 300 302 301 301 300 298 300 302 301
304 303 302 302 301 302 303 302 302 303 302 303 306 307 307 308 312 314 311 312 314 311 309 313 315 313 311 305 303 306 306 303 301 301 302 303 303 303 302 301 303 304 304 307 309 307 304 302 302 303 303 301 297 295 296 298 298 298 297 296 299 302 303 301 302 305 303 303 302 300 300 300 301 301 301 301 299 296 298 301 300 300 301 301 300 299 300
303 303 302 302 302 301 302 303 302 303 302 301 307 314 310 308 310 308 303 307 313 309 308 313 312 307 307 305 303 306 308 306 305 302 300 301 302 302 302 304 305 308 307 307 308 307 305 305 304 302 301 300 297 296 296 296 296 297 295 295 299 302 303 302 301 302 302 299 299 300 299 298 299 299 299 300 299 297 298 298 298 299 300 302 301 301 300
303 303 302 302 302 301 302 303 302 303 303 300 305 314 309 306 308 305 301 309 313 307 305 310 312 308 308 306 304 307 310 310 309 304 300 303 303 301 304 308 308 310 308 305 307 309 306 305 305 303 302 301 300 301 301 298 295 294 295 296 297 300 304 303 300 301 303 299 299 300 298 298 299 299 298 298 298 297 297 297 297 297 298 299 299 299 299
302 303 302 302 302 301 302 303 302 303 303 300 304 309 308 308 310 306 305 309 308 306 306 308 308 305 304 305 305 308 313 312 309 304 302 304 304 300 304 310 310 310 309 306 308 311 308 304 303 304 303 300 302 305 306 303 297 295 296 296 294 296 304 304 299 301 303 302 302 301 299 299 300 298 298 298 297 297 296 295 295 296 297 297 296 297 297
302 302 302 301 302 301 302 302 302 303 302 302 305 307 305 305 305 306 312 311 304 304 307 307 308 307 306 305 304 306 312 313 309 306 304 305 306 305 307 312 311 307 305 306 309 312 310 307 304 305 304 302 303 303 302 304 304 299 297 297 295 296 301 302 300 302 305 303 302 302 300 300 301 303 303 301 299 299 298 296 295 296 298 297 296 298 299
302 302 301 302 302 301 302 302 302 303 302 302 306 306 303 301 301 305 314 312 304 304 306 303 305 310 311 308 305 306 311 311 307 305 305 304 305 305 307 311 309 306 307 308 307 307 307 305 301 301 302 301 302 301 300 303 307 303 297 297 296 295 300 302 300 302 306 304 300 300 300 303 307 311 312 307 302 301 301 298 296 296 297 299 301 302 301
302 302 302 302 302 302 302 302 302 302 302 301 304 306 304 302 303 305 309 309 307 304 304 303 304 307 308 307 306 307 311 312 308 303 304 305 302 301 304 307 306 307 308 303 298 298 299 298 297 300 302 302 302 302 300 300 302 301 299 300 297 295 298 299 298 302 309 306 300 299 301 307 313 311 310 308 303 301 303 302 299 297 296 299 302 301 299
302 302 302 302 302 302 302 302 301 302 301 301 303 305 305 304 305 307 308 306 306 302 303 307 310 310 307 307 309 309 309 310 307 304 305 305 302 303 303 303 303 304 300 294 294 296 297 297 298 300 302 303 303 301 300 300 299 297 298 301 301 297 297 298 297 300 305 303 302 304 307 312 310 304 301 301 299 299 300 301 300 299 297 298 299 298 298
301 301 301 301 301 301 301 301 301 301 301 301 302 305 307 304 304 311 314 309 310 311 309 307 306 306 307 308 309 307 303 302 302 304 305 303 305 308 303 300 301 299 294 294 298 299 300 302 302 301 300 300 300 299 299 300 299 296 295 299 302 300 299 299 299 300 302 302 303 306 307 306 304 299 297 296 297 298 299 300 302 301 300 299 298 299 299
301 301 301 301 301 301 301 301 301 301 301 301 302 304 307 304 302 309 312 307 310 313 310 305 306 306 306 307 307 304 301 299 301 303 303 302 307 310 302 297 297 294 291 295 299 299 302 305 307 307 306 302 300 300 300 298 297 296 296 297 298 299 300 299 298 300 301 302 304 306 303 303 306 303 297 296 297 298 300 301 302 301 301 300 299 299 300
301 301 301 302 302 301 301 301 301 301 301 301 302 303 305 304 302 304 305 306 308 308 304 306 311 312 310 309 306 304 303 302 301 301 300 300 303 302 297 294 294 292 292 296 301 304 302 302 306 309 311 308 304 303 303 299 295 293 295 297 296 295 298 299 298 300 300 299 303 306 305 307 310 303 296 294 296 298 299 300 300 301 302 301 300 300 301
301 301 301 301 302 301 301 301 301 301 301 301 301 302 303 303 303 302 302 306 309 307 304 304 308 311 310 306 301 301 305 306 303 301 302 302 301 299 295 292 292 293 295 297 303 304 302 302 305 306 308 308 304 302 303 302 298 293 293 296 296 295 298 299 297 299 300 299 302 305 306 307 305 299 295 295 294 295 297 298 302 308 307 303 301 300 299
301 300 301 301 301 301 301 301 301 301 301 300 300 301 301 301 301 301 303 306 306 305 300 294 299 307 308 306 304 303 306 306 302 302 304 304 301 299 296 293 293 295 296 298 302 303 302 303 304 306 309 306 301 301 303 303 303 300 295 296 297 296 298 298 297 299 299 299 301 303 302 302 301 298 297 295 292 293 298 302 305 306 303 300 299 298 297
300 300 300 300 301 301 301 301 301 301 301 300 301 301 301 300 300 301 306 309 306 305 296 286 295 304 303 305 307 304 301 302 303 305 306 302 300 302 300 297 296 296 296 299 302 303 304 305 304 306 309 304 298 300 303 302 303 302 298 298 298 296 297 296 296 299 298 297 300 301 301 302 303 301 298 294 293 295 300 303 303 300 298 298 297 296 296
300 300 300 300 300 301 301 301 301 301 301 300 300 300 300 300 299 300 305 309 309 306 295 285 293 299 294 295 302 300 297 300 306 309 306 302 301 300 299 297 297 297 297 299 302 302 304 307 304 302 305 307 302 300 302 303 302 300 299 301 300 299 298 296 296 298 298 297 298 301 302 301 300 297 293 292 295 300 301 301 299 297 297 297 296 296 296
300 300 300 300 300 301 301 301 301 301 300 299 299 300 299 298 298 300 304 310 314 309 295 286 290 293 290 293 301 300 298 300 306 311 310 304 299 298 300 300 299 299 298 299 302 302 302 308 306 300 303 309 305 300 301 305 305 302 301 303 303 301 302 304 303 300 298 297 298 301 305 302 296 294 294 294 297 301 299 297 297 296 296 295 295 295 295
300 300 300 300 300 300 300 301 300 300 300 299 298 299 298 298 299 300 301 305 312 311 299 289 289 290 288 290 291 293 297 299 300 304 308 305 298 298 301 304 302 302 301 302 304 302 300 305 306 301 302 304 301 301 303 305 307 303 297 299 303 301 302 306 305 300 299 302 304 305 306 304 297 295 298 298 298 298 297 295 295 295 295 294 294 294 294
300 300 300 300 300 300 299 300 300 300 299 299 299 299 299 298 298 300 300 299 301 300 294 289 288 287 287 288 287 287 290 292 291 293 299 303 300 296 299 304 303 301 300 301 304 302 300 303 302 299 302 303 301 303 303 302 307 307 298 298 302 302 302 304 303 301 301 303 304 303 302 301 298 296 297 297 296 296 295 294 294 294 294 294 293 293 293
300 300 300 300 300 300 299 299 300 299 298 299 299 299 299 299 298 299 299 296 292 291 289 287 290 290 289 288 287 286 287 288 288 288 292 299 302 298 297 300 300 298 298 299 302 303 303 304 301 298 302 304 302 303 302 300 306 307 300 300 302 300 299 299 300 302 302 299 300 300 298 298 298 297 297 296 295 295 295 294 294 294 293 293 293 293 293
300 300 300 300 300 300 300 299 299 299 299 299 300 299 299 299 299 298 298 296 297 300 296 291 292 295 292 289 288 287 287 287 288 288 288 293 300 301 299 296 295 297 299 297 296 297 300 301 297 296 301 303 300 301 302 303 305 303 301 304 306 300 296 296 299 301 300 298 300 300 298 297 297 296 296 296 295 295 294 294 294 293 293 293 293 292 292
300 300 300 300 300 299 300 299 299 300 299 299 299 299 299 299 298 299 300 299 303 311 309 299 294 292 289 288 288 288 288 287 287 288 288 289 293 298 298 294 292 295 296 292 290 294 298 298 297 297 300 302 300 299 300 301 302 300 299 303 304 299 295 297 299 299 297 297 299 298 296 297 297 296 296 295 294 294 294 293 293 293 293 293 292 292 292
300 300 299 300 300 299 300 300 299 299 299 299 299 298 298 299 298 299 302 300 301 309 314 306 297 290 289 290 289 288 288 288 286 286 287 287 288 291 291 291 291 293 292 290 292 296 299 299 298 299 300 300 299 298 299 299 298 297 298 301 299 296 296 298 298 297 297 297 297 296 296 296 296 295 295 294 294 294 293 293 293 293 292 293 292 292 292
300 299 299 299 299 299 299 299 299 299 299 298 299 298 298 299 298 298 301 300 300 306 312 307 298 291 289 289 289 288 288 287 286 286 286 287 287 288 288 290 293 295 294 292 294 297 298 298 298 300 302 300 296 295 296 297 296 296 299 301 299 296 297 299 298 297 297 297 296 296 295 295 295 295 294 294 294 293 292 293 293 292 292 292 292 292 292
299 299 299 299 299 299 299 299 299 300 299 298 299 299 298 299 299 298 299 299 299 304 309 304 296 293 294 292 290 289 288 288 287 287 286 286 286 288 289 290 293 296 296 295 295 297 298 298 300 301 300 297 296 297 297 295 295 298 300 301 299 296 296 297 296 296 296 295 295 295 294 294 294 294 294 293 293 293 293 293 292 292 292 292 292 292 291
299 300 299 299 299 298 299 299 299 299 299 298 299 299 299 298 298 298 299 298 297 300 304 301 296 295 297 295 290 288 288 289 288 287 287 287 288 289 290 291 292 294 294 295 297 298 299 299 300 298 294 292 295 298 298 297 299 303 302 300 298 297 295 295 295 295 294 294 295 294 293 294 293 293 293 293 292 292 293 292 292 292 292 291 291 291 291
299 300 299 299 299 298 298 299 299 299 300 298 298 303 307 303 298 297 298 298 297 300 308 311 303 296 294 293 291 290 289 289 289 288 288 290 290 290 291 292 291 291 292 294 295 297 298 298 297 295 292 291 294 297 297 298 302 305 303 301 299 297 296 295 295 294 294 294 294 293 293 293 293 292 292 292 292 292 292 292 292 291 291 290 291 291 290
299 300 298 298 300 299 298 299 298 298 300 299 300 308 312 305 299 297 298 299 298 300 308 313 303 296 295 293 291 291 291 290 290 290 289 290 291 291 291 292 291 291 294 296 295 294 296 297 297 297 295 294 297 299 297 297 301 303 301 299 298 296 296 295 294 294 294 293 293 292 292 293 293 293 292 292 292 292 291 291 291 291 290 290 290 290 290
299 299 299 299 299 298 298 299 298 299 300 299 300 303 302 299 299 297 296 299 298 298 307 312 303 300 304 300 291 289 291 290 289 290 291 291 291 290 290 290 290 291 294 296 296 295 295 296 297 297 294 294 298 300 297 297 301 302 299 298 297 296 295 294 294 294 293 292 293 293 293 293 293 293 292 292 291 291 290 290 290 290 290 290 290 290 290
299 299 299 299 299 298 299 299 298 299 300 299 298 299 297 298 299 297 297 299 297 296 306 312 305 301 303 299 291 290 291 291 291 292 292 291 289 290 291 290 289 291 293 295 295 295 295 295 295 295 294 294 297 299 298 300 302 301 299 298 297 295 294 294 294 294 293 292 292 292 292 293 292 292 291 291 290 290 290 290 290 290 290 290 290 290 290
299 299 299 299 299 299 299 298 298 299 300 299 298 298 297 298 298 297 298 298 297 299 304 307 308 307 305 302 300 294 290 293 297 297 295 292 289 290 292 292 291 293 294 293 294 294 294 294 295 295 294 293 293 296 299 301 301 300 298 296 294 294 294 294 294 294 293 292 291 291 291 291 291 291 291 291 290 290 290 290 290 290 290 290 290 290 289
299 299 299 299 299 299 299 299 299 299 299 298 298 298 297 297 297 299 299 298 300 305 306 304 309 314 309 310 313 300 290 293 298 295 293 293 289 289 292 294 294 294 293 291 293 295 294 294 295 295 292 292 295 299 300 299 298 297 295 295 294 294 293 293 293 293 292 292 292 291 290 290 291 291 291 291 290 290 290 290 290 290 290 290 290 289 289
300 299 299 299 299 298 299 299 299 299 299 298 297 297 298 297 297 298 299 298 300 306 307 308 312 309 302 305 309 298 291 296 299 293 292 293 291 290 293 295 294 294 292 292 295 295 291 291 293 294 293 295 299 301 299 296 296 296 295 294 294 293 293 293 292 292 292 291 292 292 291 290 291 291 290 290 290 290 290 290 290 290 290 289 289 289 289
299 299 300 299 299 299 300 299 298 299 299 297 297 297 298 298 298 298 299 300 299 300 303 310 313 303 296 300 302 296 295 301 300 295 295 296 294 293 294 296 296 295 293 295 297 294 291 292 294 296 297 298 298 299 298 297 297 296 294 294 294 294 293 293 292 292 291 291 291 291 291 290 291 290 290 290 290 290 290 290 289 289 289 289 289 289 289
300 300 300 298 300 304 304 300 298 299 298 297 298 298 298 298 301 302 302 303 302 300 300 305 306 298 295 299 300 295 295 299 300 299 298 296 296 295 294 295 297 295 294 296 294 290 292 295 294 295 299 300 296 296 299 299 297 296 295 294 294 293 292 292 291 292 291 291 291 291 290 290 290 290 290 290 290 290 290 289 289 289 289 289 289 289 288
302 301 300 299 301 304 304 300 297 298 298 297 298 299 299 300 304 305 304 303 303 302 302 304 301 295 296 301 302 296 293 295 299 302 299 297 298 297 295 296 296 294 296 298 292 288 292 297 293 293 300 302 297 295 297 297 295 293 292 291 291 291 290 289 290 290 291 291 290 290 289 290 290 290 290 290 290 290 289 288 288 288 288 288 288 288 288
302 300 300 301 301 301 300 298 297 298 299 299 300 302 304 304 303 302 304 306 304 300 299 299 296 292 291 295 298 297 293 292 295 298 297 296 295 294 294 296 294 293 297 299 293 289 293 296 293 294 297 297 295 294 294 294 293 291 289 289 289 290 289 288 289 290 290 290 289 289 289 289 289 289 289 290 289 289 289 288 288 288 288 288 288 288 288
301 300 300 301 301 298 298 298 298 298 300 302 304 305 306 304 301 299 304 309 306 299 294 295 297 297 294 292 294 297 294 290 289 291 294 295 294 293 295 295 292 293 297 297 292 291 294 294 295 297 297 294 293 293 292 291 290 290 289 289 289 290 290 289 289 290 290 289 289 290 290 289 289 289 289 289 289 288 288 287 287 287 287 287 287 287 288
301 300 299 299 299 298 299 300 300 300 303 306 307 305 303 303 304 303 303 303 301 297 295 294 295 296 294 290 290 292 291 289 289 292 294 295 294 294 294 294 293 295 297 293 289 292 296 296 296 298 297 293 292 291 290 289 290 290 290 290 289 290 290 289 289 290 290 290 290 289 289 290 289 289 289 289 288 287 286 286 286 286 286 286 286 287 287
300 299 298 298 299 299 301 302 302 302 305 308 307 305 304 304 305 304 302 300 297 296 295 294 293 293 292 289 288 289 289 289 290 292 293 293 293 293 294 295 296 295 293 290 290 295 297 297 297 295 293 291 291 290 289 289 289 289 290 289 290 290 290 289 290 290 290 290 290 289 289 290 289 289 289 289 287 286 285 285 285 285 285 285 286 286 285
300 299 299 301 302 302 303 303 302 303 304 304 304 305 306 306 305 305 304 301 297 295 294 293 293 294 295 292 290 290 291 290 290 292 292 291 292 293 296 298 297 292 290 292 295 296 295 296 297 294 291 290 290 289 289 289 289 289 290 290 290 290 290 290 290 290 290 290 290 289 289 289 290 289 289 288 286 285 284 284 284 284 284 285 285 285 284
303 304 306 308 305 302 303 305 304 302 302 303 303 304 303 303 306 307 301 295 292 293 294 292 291 292 294 293 290 290 292 292 292 293 292 291 293 295 295 295 295 293 293 296 299 296 295 296 295 292 290 289 289 288 289 289 289 289 290 290 290 290 290 290 290 289 289 289 289 289 289 290 290 289 288 286 285 284 284 284 284 284 284 284 285 284 283
302 303 307 309 305 301 303 305 304 302 301 301 302 303 301 300 303 301 294 289 291 293 293 291 289 291 294 295 292 290 291 292 292 292 291 292 295 296 292 290 292 295 296 298 298 296 294 293 291 290 289 289 288 289 289 289 289 289 290 290 290 291 290 290 289 288 288 288 288 288 289 289 289 288 286 285 284 283 283 283 283 283 283 284 284 282 280
302 302 305 307 305 303 303 303 300 299 299 299 299 299 296 294 295 293 288 286 289 290 289 288 288 288 289 290 291 291 291 292 292 291 290 292 294 295 293 293 295 296 295 295 294 293 292 291 290 289 289 288 288 289 289 289 289 289 290 290 290 290 289 288 287 287 288 288 287 288 289 289 288 286 285 284 283 283 283 282 282 282 283 283 281 279 278
304 303 303 304 304 304 303 301 298 296 296 297 297 295 291 290 294 295 288 283 284 287 289 289 290 290 290 290 291 291 292 292 293 292 290 291 293 295 296 298 298 295 292 293 292 291 290 290 289 289 289 289 289 289 289 289 289 290 290 290 289 287 287 287 287 287 287 286 287 288 288 287 286 285 283 283 282 282 282 281 282 282 282 281 278 277 277
301 301 301 303 303 301 300 299 300 300 300 298 297 295 293 294 297 294 287 282 283 286 286 286 288 291 292 291 292 293 293 293 293 293 293 294 296 295 295 296 296 294 292 292 290 289 289 289 289 289 289 289 289 289 289 289 289 289 289 288 286 285 285 286 286 286 285 286 286 287 287 285 284 283 282 282 282 281 281 282 282 282 280 278 277 276 276
298 300 301 301 302 302 300 300 304 306 304 302 299 296 294 295 295 290 285 283 284 286 286 286 288 291 292 293 296 298 295 291 292 294 295 294 295 294 292 292 293 291 290 290 289 289 289 289 288 289 289 289 289 289 289 288 288 288 287 286 285 284 285 285 285 285 285 285 286 286 284 283 282 282 281 281 281 281 281 282 281 280 278 276 275 275 274
300 299 296 295 297 298 298 300 302 302 300 299 298 293 290 292 293 288 283 282 284 289 292 292 291 293 295 296 298 297 293 290 292 295 294 292 292 291 290 290 290 289 289 289 289 289 289 289 288 289 289 289 289 289 287 286 286 286 285 284 284 284 284 284 284 284 284 285 284 283 282 281 281 281 281 281 281 281 281 280 279 277 276 275 274 274 273
304 300 296 294 295 295 295 297 298 297 296 295 293 290 288 289 288 284 281 284 288 292 292 291 291 295 297 296 294 292 292 293 294 294 292 292 291 290 289 289 289 289 289 288 288 288 289 289 288 288 289 289 288 287 286 285 284 284 283 283 283 283 283 283 283 283 283 283 282 281 281 280 280 280 281 281 281 280 279 277 276 275 274 273 273 272 272
Wind_Speed
2 2 3 3 5 4 4 6 7 8 8 5 4 3 2 2 2 2 5 2 0 5 3 3 3 1 1 1 0 0 1 1 0 1 1 1 0 1 0 1 1 1 1 1 3 2 2 3 3 2 3 2 1 1 3 1 1 2 1 1 1 1 2 1 4 5 3 4 4 2 1 2 1 2 2 4 3 4 5 5 3 2 3 2 2 3 10
3 2 2 3 4 3 4 6 8 7 7 6 5 2 2 2 3 1 4 4 2 3 1 1 1 2 2 1 1 1 0 2 2 2 2 1 2 1 1 2 1 1 1 2 2 2 1 2 1 1 3 1 1 2 3 1 1 1 2 2 1 1 1 1 2 6 6 5 5 4 3 0 3 3 2 3 4 6 4 2 2 1 5 6 4 5 10
4 3 2 3 3 3 4 6 6 5 6 7 5 1 2 1 0 1 4 6 5 2 3 4 4 2 1 1 2 1 0 1 3 3 2 2 3 2 1 1 1 1 2 2 0 1 0 1 1 1 1 2 2 2 2 1 1 1 1 0 0 2 2 2 1 2 4 5 4 3 2 2 2 2 3 4 6 8 4 2 3 3 5 6 6 7 11
4 3 3 3 2 2 3 5 5 5 6 6 4 1 1 2 1 2 5 6 6 2 1 5 5 4 3 1 2 2 1 2 1 2 2 1 2 1 1 0 2 2 1 1 1 2 1 1 1 1 2 2 1 1 1 1 1 2 1 2 2 2 1 3 5 6 7 7 6 2 1 1 5 5 5 6 6 7 5 4 3 5 3 3 9 12 14
5 4 4 4 3 3 2 3 4 4 5 5 3 2 2 1 1 1 1 3 3 3 3 4 4 3 4 2 1 3 2 2 1 1 1 0 1 1 0 1 2 2 2 2 2 2 1 1 1 2 3 2 2 1 1 0 1 1 1 1 3 3 3 5 7 10 11 9 8 5 2 5 10 9 6 8 8 7 7 7 7 5 4 6 12 10 10
6 6 5 5 4 4 3 3 4 4 5 4 3 2 2 1 1 2 1 1 1 1 1 2 4 1 1 1 1 3 2 1 2 2 1 1 0 1 0 2 5 6 5 3 1 1 1 1 2 2 1 1 2 2 1 1 1 1 1 2 3 4 4 5 5 8 12 8 9 10 7 7 10 10 9 9 9 11 14 16 11 8 6 13 12 6 9
7 7 7 7 6 6 5 3 3 4 4 5 2 1 1 1 1 1 2 0 3 1 1 3 5 3 1 1 1 4 4 5 4 2 2 2 2 2 2 6 6 6 5 3 3 3 2 2 4 2 2 2 1 0 2 1 1 1 1 1 2 4 4 4 3 5 12 10 8 9 7 6 9 11 11 11 11 14 16 16 12 9 13 19 18 17 17
9 9 9 8 7 7 6 4 4 4 5 5 1 1 1 1 2 1 3 3 1 1 2 3 4 1 1 0 2 3 5 6 4 2 4 2 2 2 4 7 5 5 5 5 4 7 6 3 4 4 3 2 3 3 3 2 2 1 1 1 1 2 3 1 3 3 9 7 4 3 5 6 10 15 13 11 10 11 12 12 8 7 13 18 17 17 17
10 9 8 8 7 8 7 6 6 6 5 4 1 1 1 1 2 3 4 2 1 1 2 3 3 0 1 2 3 2 5 7 4 2 2 4 4 6 7 5 2 3 4 6 7 8 8 6 6 7 6 3 4 3 2 5 5 2 2 1 1 2 2 2 5 3 7 4 5 7 7 7 11 17 15 9 8 7 8 7 6 8 10 11 9 8 11
9 8 7 7 7 8 8 8 8 8 6 4 2 1 2 2 2 2 4 1 1 1 1 2 2 2 3 3 3 2 4 5 4 2 1 1 3 5 7 5 3 3 3 7 8 6 6 6 5 5 4 1 2 1 2 6 6 5 4 1 1 3 1 1 2 2 6 4 5 7 9 8 8 10 7 6 6 6 5 5 8 10 7 4 5 7 11
8 8 8 9 9 10 10 11 11 11 9 8 5 3 3 4 1 3 5 2 2 1 2 1 2 3 3 2 1 1 1 2 4 3 2 0 1 1 5 6 3 2 5 6 5 3 4 4 2 4 4 4 4 3 4 5 4 5 6 3 1 3 4 1 1 1 5 7 7 6 5 4 6 5 5 4 3 6 7 9 10 8 7 6 8 10 13
11 11 12 13 13 13 13 13 14 13 11 11 8 4 3 4 3 3 5 2 3 1 1 3 4 2 1 1 2 0 2 3 3 2 1 2 2 3 3 5 3 2 3 3 2 0 1 1 1 3 4 5 5 5 4 3 1 1 5 5 4 4 3 2 1 1 4 5 6 5 3 6 8 6 1 2 2 5 8 11 13 10 10 11 13 15 17
9 9 9 10 10 11 11 11 11 10 10 11 10 6 4 4 3 3 5 3 3 2 2 3 2 1 0 2 3 0 2 1 1 1 2 1 1 2 1 2 3 2 3 3 3 3 1 2 2 2 3 4 4 4 3 2 3 2 3 4 5 6 4 2 1 2 3 3 2 1 5 9 11 7 2 1 2 2 1 7 12 11 9 10 12 16 17
6 6 6 6 6 6 6 6 6 7 8 10 11 8 5 5 3 2 4 2 3 4 4 1 3 1 2 2 3 1 2 2 3 2 2 1 1 2 3 1 1 3 3 2 4 4 0 2 4 4 4 4 3 2 1 2 3 3 3 2 3 6 4 1 1 2 1 1 2 4 7 11 9 4 2 1 1 1 1 2 9 12 8 8 10 13 15
5 5 5 5 4 2 3 3 4 5 7 10 11 9 7 6 3 2 3 4 1 3 2 2 3 4 4 3 4 3 2 2 2 1 1 1 1 2 4 2 3 5 2 2 3 3 1 1 2 3 4 2 2 3 0 1 2 3 3 3 3 4 3 3 2 1 1 1 3 4 5 6 5 2 3 4 3 4 4 1 7 11 8 7 8 10 14
3 4 4 3 2 1 2 3 4 5 7 9 10 10 8 7 6 4 2 5 3 2 2 3 4 5 4 2 3 3 1 2 2 1 3 3 2 2 3 3 3 3 3 3 2 3 3 1 2 1 2 2 2 2 1 0 1 3 4 5 6 4 2 4 2 2 1 2 1 2 3 6 4 2 5 5 3 3 3 2 6 8 6 4 5 8 14
3 3 3 3 2 0 1 2 3 4 5 6 8 8 8 7 8 7 2 4 2 1 2 2 3 4 4 1 1 2 2 3 2 1 1 2 2 2 3 3 2 1 2 3 3 3 3 1 2 1 4 3 2 1 2 0 1 3 3 4 5 4 4 3 1 3 1 2 2 3 5 7 5 4 5 5 2 1 3 6 7 7 10 8 5 10 15
4 3 3 3 2 1 1 2 2 3 4 5 5 5 6 6 8 9 4 4 2 1 1 1 2 2 2 3 3 2 2 3 2 1 1 1 1 1 1 0 1 1 1 2 2 2 2 1 2 2 4 3 0 0 2 1 2 2 1 2 2 1 0 1 2 3 3 3 3 4 5 7 6 5 5 4 2 2 4 7 9 12 17 15 11 13 16
4 4 4 4 3 3 3 3 3 4 4 4 3 3 2 2 7 9 4 3 2 1 1 0 1 1 0 1 1 1 1 2 3 3 2 2 2 3 2 1 1 0 1 2 2 2 1 2 2 3 1 4 1 1 2 2 2 2 3 1 1 1 1 0 2 2 2 3 3 3 6 5 4 2 3 2 3 5 6 8 12 15 17 17 15 15 15
6 6 5 5 5 5 5 5 5 5 5 4 2 2 1 0 6 8 4 2 4 2 1 1 1 1 0 1 0 1 0 1 2 3 3 2 2 3 3 3 2 0 2 2 0 1 1 3 3 1 2 3 2 1 2 3 2 3 4 3 3 3 3 2 3 3 2 1 0 2 5 5 3 2 2 1 1 7 10 11 13 14 14 15 15 14 14
8 8 7 7 6 6 6 6 6 5 5 3 1 1 3 3 4 6 4 2 5 3 1 1 1 1 1 1 0 1 1 1 1 1 3 3 2 3 2 2 2 2 1 2 2 1 2 3 2 1 1 2 1 1 2 2 5 4 4 3 2 4 4 2 3 3 2 1 2 3 5 5 3 2 3 5 5 8 10 10 12 13 12 11 12 13 14
10 9 9 8 7 7 6 5 5 5 4 4 2 1 5 7 7 6 3 4 9 8 4 4 3 3 4 4 2 1 2 1 1 1 3 2 1 2 2 2 2 3 2 2 2 1 2 2 1 1 1 2 2 2 3 2 4 5 1 1 1 4 5 3 3 4 3 4 7 6 7 7 2 4 6 10 11 10 10 9 11 11 10 10 11 14 16
10 9 9 9 8 8 7 6 6 5 5 5 4 5 8 9 9 8 7 10 13 10 6 5 4 3 3 3 3 2 1 1 0 1 3 3 1 1 2 2 2 1 1 1 2 3 2 2 2 1 1 3 2 1 1 2 3 3 1 1 3 3 2 2 1 4 4 5 6 6 7 10 8 5 6 8 8 8 9 10 10 11 11 11 11 13 16
9 9 9 8 9 9 9 9 9 8 7 7 7 6 8 10 8 7 7 7 7 5 3 2 2 1 1 1 2 2 2 2 1 1 1 2 1 0 1 1 1 0 0 1 2 2 2 1 1 1 2 3 2 1 2 3 3 2 1 3 5 2 1 0 2 3 3 4 7 7 9 12 14 11 8 8 8 8 9 10 11 12 13 13 12 14 15
6 7 7 8 8 9 10 10 11 10 9 8 7 6 6 6 4 4 3 3 3 4 3 2 2 0 0 1 1 1 4 3 2 3 1 1 1 1 1 1 1 1 2 2 1 2 1 1 1 2 2 3 1 1 2 2 2 1 1 3 4 2 3 3 3 3 4 7 10 10 11 12 11 9 9 11 13 13 13 12 12 13 15 16 15 15 14
5 5 6 7 7 7 9 10 11 11 10 8 6 4 2 2 2 3 3 3 4 4 4 1 2 1 1 1 1 2 3 1 3 3 1 2 1 1 2 3 2 0 1 2 2 3 2 1 1 2 2 2 1 1 2 2 2 1 1 4 4 2 3 3 2 4 6 7 10 12 12 11 9 10 12 13 14 15 16 16 15 16 16 17 18 18 16
5 4 5 6 6 6 7 9 10 11 11 10 9 7 5 4 3 2 1 1 1 2 2 0 2 2 1 1 0 3 3 2 2 1 1 1 1 1 1 3 2 1 2 3 2 2 3 2 0 2 4 2 0 1 1 2 0 1 2 5 3 4 4 3 3 5 6 8 10 12 11 11 11 13 15 15 14 14 15 16 17 18 17 17 19 21 20
7 6 5 6 6 5 6 7 8 7 8 8 7 8 9 9 7 5 3 1 1 3 4 2 1 0 1 0 2 3 3 2 1 2 2 2 1 2 0 2 2 2 3 2 0 2 3 1 2 2 2 0 0 1 2 2 2 1 3 4 1 2 3 4 4 5 8 10 11 9 8 9 12 14 16 14 12 12 14 16 17 17 17 16 17 19 20
11 9 7 6 6 5 4 3 2 2 4 4 2 3 5 7 8 8 5 3 4 5 5 3 1 1 1 1 2 2 3 3 2 2 3 2 1 2 1 0 1 2 2 2 2 2 2 3 2 1 1 1 1 1 2 2 1 2 3 3 2 2 2 3 5 7 8 10 10 8 8 11 15 16 14 13 13 13 15 17 16 15 17 18 16 16 17
12 12 10 8 6 4 1 1 3 5 6 5 2 1 3 4 5 6 5 3 3 4 4 4 1 0 1 1 1 2 2 2 2 1 1 1 2 2 2 1 1 2 2 2 2 2 1 1 1 2 2 0 2 1 0 2 1 4 5 4 4 4 4 5 6 6 8 9 8 8 9 12 14 13 11 11 14 16 14 15 17 18 20 21 17 15 17
9 10 10 9 8 6 5 4 4 4 4 2 1 2 2 1 4 6 4 2 2 2 4 4 1 1 2 2 1 1 1 1 2 1 1 2 2 2 2 1 1 1 2 1 0 1 1 0 1 2 2 2 3 3 2 2 1 5 6 5 6 6 6 6 6 7 8 10 10 9 10 10 9 10 11 12 17 19 15 15 21 23 23 22 21 18 20
6 6 6 6 6 6 5 6 6 7 7 5 5 4 3 1 4 5 2 1 1 1 3 3 2 1 2 2 1 1 1 1 1 1 1 1 1 1 1 0 1 1 2 2 1 0 1 1 1 0 2 3 4 3 3 3 1 5 7 7 7 7 6 7 8 8 7 8 10 13 13 11 8 10 12 14 19 21 18 17 24 28 26 24 23 22 23
4 4 4 4 3 3 3 3 4 4 4 5 7 6 5 5 5 4 1 1 1 1 3 3 2 1 1 1 1 2 2 1 1 2 2 1 1 1 1 2 2 1 0 1 1 1 1 1 2 1 2 2 3 3 2 1 5 6 8 8 8 8 7 7 8 8 7 7 8 10 13 16 16 16 17 18 19 21 21 21 24 25 23 20 20 20 22
4 4 3 3 4 4 4 3 3 3 2 2 3 4 4 5 6 7 4 1 2 2 3 3 2 1 2 2 1 2 2 1 1 2 1 1 0 1 0 2 2 2 1 0 1 0 1 1 2 1 2 3 3 3 0 3 6 6 7 8 8 7 7 7 6 6 7 8 8 9 12 16 18 19 18 17 16 19 22 22 21 19 17 17 17 18 19
4 4 4 5 5 5 4 4 3 3 1 1 1 3 4 3 4 8 7 3 2 2 2 2 3 2 2 4 3 2 1 1 1 1 1 1 1 1 1 1 2 1 0 0 1 1 1 0 2 2 1 2 1 1 2 5 6 7 8 8 8 8 9 10 10 9 8 8 9 11 13 14 14 14 14 14 15 17 19 19 19 19 17 16 17 18 17
5 5 5 5 5 5 4 2 2 2 1 1 2 4 4 2 1 5 7 8 7 3 1 1 3 2 1 2 4 3 2 2 2 1 1 1 1 1 2 3 1 1 1 2 2 1 1 0 2 2 1 0 2 1 2 4 6 8 8 8 8 8 8 11 12 12 12 11 11 11 11 11 11 11 12 13 14 15 16 17 18 19 18 18 19 18 15
5 6 6 5 4 3 2 1 1 3 3 4 4 4 2 1 1 2 4 6 8 7 4 3 2 1 1 1 2 3 4 3 2 2 2 1 1 1 2 3 1 2 2 3 1 0 1 1 2 2 1 2 2 4 4 3 5 7 7 8 8 7 7 9 11 12 14 16 15 13 13 13 13 12 12 14 15 15 16 17 17 17 18 18 17 17 18
5 6 5 3 1 1 0 0 2 5 6 5 3 2 2 1 2 2 2 3 5 6 5 4 2 1 1 1 2 2 3 2 2 3 2 1 1 1 1 1 1 1 2 2 2 1 1 3 3 1 3 3 2 4 6 5 5 6 6 7 7 7 8 9 9 11 13 16 17 17 17 18 19 18 17 18 19 18 18 17 18 19 19 17 18 20 22
4 4 3 1 1 0 1 3 6 6 5 2 1 1 1 2 3 2 2 2 3 3 4 4 1 0 1 2 3 3 3 2 3 3 2 1 1 1 1 1 0 1 2 1 1 1 2 2 2 1 2 4 4 4 5 5 4 6 8 9 11 12 11 10 9 10 10 11 14 15 15 16 17 17 16 16 17 18 20 21 23 26 25 24 26 27 22
4 2 1 1 1 1 3 6 7 4 2 2 2 1 1 2 2 0 1 2 3 2 2 2 0 1 1 1 2 3 3 3 1 1 1 1 1 0 1 1 0 1 1 1 1 1 2 0 1 2 1 3 6 6 5 6 6 7 9 12 15 16 15 14 14 15 14 14 18 20 21 21 19 15 14 14 14 15 18 20 25 31 33 32 32 31 25
4 3 2 2 3 4 5 5 4 2 1 2 2 2 2 2 1 1 2 3 3 2 1 2 2 3 2 1 1 2 2 2 1 2 1 2 1 1 1 1 1 1 0 3 2 2 3 1 1 0 1 4 7 7 7 9 9 8 11 16 18 19 20 19 19 20 19 18 19 22 26 27 24 20 18 17 15 16 18 21 27 34 36 34 36 35 29
4 3 3 3 3 4 3 2 3 3 2 2 2 2 1 1 2 2 2 2 1 2 2 1 1 3 3 1 1 2 1 2 2 2 2 1 1 1 1 1 2 2 1 3 0 3 2 1 1 2 4 6 8 9 10 12 11 11 15 19 20 22 23 21 20 23 25 22 20 23 27 29 27 24 22 21 21 23 26 29 32 35 36 39 40 35 28
4 2 2 1 2 3 3 3 3 3 2 2 2 2 2 3 2 2 2 2 1 1 2 2 2 3 2 0 1 2 1 1 1 1 1 1 1 2 3 2 1 0 1 0 3 3 0 1 1 4 6 8 9 10 12 14 13 13 17 21 23 24 24 21 21 24 27 27 26 28 29 29 28 27 25 25 26 28 34 38 38 36 38 41 38 29 28
2 2 2 2 2 3 3 2 2 3 3 2 2 2 2 4 2 1 2 3 2 2 2 2 2 3 3 1 0 1 1 1 1 1 1 1 1 2 2 1 2 1 1 2 2 0 1 2 1 5 8 9 10 12 13 13 13 13 16 22 27 26 23 21 22 23 26 28 29 31 31 31 28 26 27 28 28 30 35 40 39 37 40 39 32 27 32
1 2 4 3 3 3 2 1 2 3 3 1 0 2 2 2 3 3 2 2 2 2 3 2 1 1 4 3 0 1 1 1 2 1 0 1 2 1 1 2 1 1 2 1 1 2 3 3 4 7 11 12 12 13 12 12 14 15 16 19 23 24 22 22 23 23 24 27 30 32 32 29 26 24 27 31 32 34 35 36 35 36 39 35 27 27 32
2 1 3 3 2 2 1 2 2 2 1 0 1 3 3 3 4 5 3 1 1 4 5 3 2 2 3 3 1 0 1 2 1 0 0 2 1 2 2 1 1 3 3 3 3 3 3 6 7 9 11 12 13 12 12 13 16 18 17 15 18 22 24 26 26 26 27 30 32 33 31 27 25 26 28 31 35 37 36 35 38 40 38 30 25 27 32
2 1 3 3 2 2 2 1 0 0 1 2 3 4 4 3 3 3 2 2 2 4 4 3 2 2 2 2 1 1 1 2 1 1 1 1 0 2 1 2 1 1 2 3 4 4 5 7 8 9 10 12 12 13 13 13 15 17 17 16 18 23 28 29 28 27 30 34 35 32 29 27 27 28 29 32 36 37 36 38 43 44 35 27 27 32 35
2 1 2 2 1 1 1 1 1 1 1 1 2 3 2 2 2 3 3 3 2 3 4 3 2 1 2 1 1 1 2 1 1 1 1 1 1 2 3 3 2 1 1 2 4 6 7 7 9 10 11 11 12 13 13 12 14 17 17 17 20 26 30 30 28 29 33 36 33 29 27 28 30 31 32 33 34 35 37 43 45 40 31 30 35 41 44
5 3 3 2 2 1 1 2 3 2 2 3 2 2 3 2 3 5 4 3 3 4 3 1 0 1 2 1 2 2 1 1 1 1 2 3 2 1 1 2 3 3 2 3 5 7 7 7 9 10 11 11 12 12 11 13 17 20 20 22 26 30 31 30 30 33 36 35 30 28 29 31 31 32 33 31 31 35 41 44 40 33 33 40 45 47 48
7 4 3 2 2 1 1 3 4 2 5 5 4 3 4 4 4 4 4 4 4 4 2 1 1 0 1 1 2 2 1 1 0 2 3 3 2 1 1 2 3 4 5 5 6 7 8 8 8 10 12 13 13 11 12 16 21 24 26 30 34 34 32 32 33 35 35 33 31 31 33 33 33 32 32 32 35 40 42 38 32 32 40 47 48 45 44
5 4 2 1 2 1 1 2 3 0 3 4 3 3 3 2 2 4 6 6 4 3 4 2 0 1 3 3 2 1 1 1 2 4 3 2 1 2 2 4 5 6 7 7 6 6 7 7 7 9 12 12 12 14 19 25 28 28 31 35 35 32 32 34 35 34 33 33 34 34 35 36 37 37 38 39 40 37 31 30 35 41 46 47 44 41 42
3 3 1 1 2 2 2 2 2 0 2 3 3 2 2 2 3 7 9 7 3 2 2 1 1 3 3 1 0 1 1 2 4 4 2 0 1 1 2 5 6 6 7 7 7 6 6 7 9 11 12 11 13 20 29 33 33 33 34 35 34 32 32 33 33 33 34 34 35 38 40 40 40 40 38 35 30 24 21 27 39 46 47 45 43 43 42
Wind_Direction
282 308 323 339 356 356 346 347 343 340 343 350 6 8 45 101 188 277 18 18 75 64 55 325 13 61 248 288 287 305 101 121 179 276 277 194 179 8 308 208 202 200 188 150 168 180 196 189 188 218 222 207 205 118 71 68 118 100 133 225 238 118 93 78 278 288 303 306 325 15 54 105 154 231 164 141 156 143 154 181 184 201 211 175 116 247 268
274 289 311 340 356 344 338 345 344 351 8 16 12 14 152 162 209 217 23 12 54 91 166 231 10 286 302 26 325 300 139 156 161 207 244 204 158 153 218 220 222 206 118 102 174 201 203 201 200 193 199 219 7 37 34 28 138 139 182 182 173 251 170 102 328 326 336 344 347 343 335 196 218 241 178 150 120 104 120 141 101 263 218 168 157 246 263
272 278 305 338 341 324 336 345 349 12 26 17 12 70 152 96 271 292 358 25 65 125 185 148 150 208 84 76 234 230 252 208 179 187 219 195 170 173 257 228 127 97 77 66 129 189 319 262 301 51 210 251 341 7 4 63 157 232 262 103 107 225 193 142 132 289 291 295 298 287 272 237 226 213 184 175 140 135 156 130 107 246 227 160 169 240 268
273 282 298 311 305 296 324 339 354 19 13 3 10 59 113 85 36 307 335 17 56 67 122 111 123 162 148 142 231 169 183 278 236 167 194 193 164 168 310 89 82 57 87 103 264 262 339 20 76 180 234 258 292 307 5 86 182 237 337 51 77 97 228 208 189 207 231 248 255 232 112 284 264 241 204 197 184 159 132 110 175 204 175 190 224 238 273
276 280 285 286 275 260 287 329 346 357 357 357 10 34 51 93 170 176 332 347 31 31 18 75 101 173 174 161 202 180 195 297 328 184 216 203 135 130 16 142 156 180 172 169 237 245 353 41 171 208 223 249 282 270 161 128 241 215 97 60 94 89 289 243 206 229 246 255 272 286 309 267 261 254 222 201 192 164 156 196 212 156 118 259 249 219 247
276 276 277 276 263 245 252 305 331 331 334 338 357 27 27 45 185 147 101 274 217 45 0 105 100 111 180 131 166 174 180 229 207 201 300 5 206 177 272 238 209 194 179 161 182 229 297 270 230 216 216 244 336 339 214 225 315 79 47 348 109 125 258 242 194 250 266 264 268 269 264 258 259 255 238 217 195 179 196 220 212 157 192 255 264 240 244
277 276 275 271 256 239 237 265 311 316 316 320 345 68 21 61 118 6 19 319 192 168 7 112 108 106 107 86 186 173 186 226 228 183 88 350 283 196 221 260 234 203 189 147 154 204 211 276 257 206 177 196 138 302 238 228 12 71 97 321 140 148 247 246 174 282 285 273 261 256 251 259 268 259 240 223 211 199 211 230 221 198 232 254 267 275 274
277 276 273 267 251 237 234 249 284 297 307 310 313 153 252 101 165 225 39 55 123 51 37 90 109 90 21 316 237 179 181 217 240 171 150 193 262 186 213 251 232 194 187 158 186 215 186 195 242 184 155 221 202 206 218 160 81 53 144 270 262 191 262 251 103 317 288 285 308 284 243 247 271 274 257 228 219 216 223 239 232 218 245 256 266 278 280
277 275 269 263 249 238 238 245 262 280 298 299 270 173 221 139 142 144 110 83 327 4 33 92 115 282 290 210 228 212 202 211 202 184 178 170 180 184 199 221 184 126 179 197 233 234 183 182 219 186 175 220 208 214 207 145 136 174 186 175 161 188 272 358 55 344 279 292 2 331 301 287 279 280 273 237 204 210 224 229 205 197 230 258 278 282 271
274 274 269 263 255 247 245 247 254 267 277 267 228 202 190 140 76 85 107 95 293 123 76 73 113 231 234 197 199 220 243 229 188 184 311 104 159 193 187 171 124 109 201 224 240 231 187 197 221 186 171 158 130 173 163 134 139 164 171 168 160 153 158 23 53 311 272 291 342 327 323 322 289 269 250 194 184 213 239 247 218 199 204 251 263 253 263
280 281 277 272 267 260 255 254 255 261 264 253 233 225 197 162 127 63 85 56 291 137 116 134 184 221 230 196 194 228 262 227 189 201 272 1 355 242 160 146 136 187 217 231 243 230 198 196 165 118 99 77 75 87 115 124 133 154 153 154 180 130 122 162 180 234 270 295 326 329 328 306 273 245 177 168 221 225 231 260 254 214 192 222 249 264 277
285 282 277 271 267 263 260 258 258 259 256 243 227 227 218 174 141 84 97 136 269 60 94 240 214 210 262 132 111 252 218 196 205 221 214 222 311 2 114 139 155 223 263 298 320 339 200 217 90 73 50 42 48 66 97 115 51 107 131 130 141 135 132 204 200 195 265 305 352 346 274 235 261 281 230 228 260 198 213 261 272 248 221 233 256 268 270
290 291 287 282 276 269 263 259 255 253 245 229 215 210 212 186 144 92 109 138 245 203 177 248 242 155 261 132 112 27 257 233 307 34 111 141 276 340 3 147 169 241 323 357 36 67 63 321 338 327 343 9 22 38 58 39 18 43 87 101 134 146 149 196 187 189 275 329 39 277 274 282 296 323 15 69 53 90 240 288 280 263 234 227 246 258 262
318 324 323 315 306 286 269 258 249 243 229 215 207 203 208 198 165 116 118 120 270 224 174 266 297 206 196 172 125 80 321 326 345 13 79 87 166 223 266 247 228 302 320 39 44 44 45 355 12 345 331 4 5 343 19 39 42 61 34 11 128 138 139 189 251 214 211 258 243 262 315 319 317 343 25 353 32 109 139 293 284 276 250 223 241 261 269
335 340 345 337 331 305 263 243 229 224 216 210 209 207 211 214 204 180 142 131 241 258 192 202 224 184 176 181 145 111 358 314 309 333 350 24 100 226 245 250 305 320 353 91 57 46 63 34 26 342 328 349 320 304 1 67 30 39 23 17 92 117 146 169 203 251 105 56 298 320 345 314 281 276 284 280 250 189 149 126 287 283 272 242 240 261 277
343 347 352 346 345 307 229 216 212 214 208 207 213 215 220 224 214 202 144 117 116 275 242 190 159 141 140 167 173 164 177 191 186 325 334 335 341 291 261 270 309 336 48 72 64 74 67 49 158 190 264 224 218 287 302 225 352 10 15 34 61 47 39 110 139 291 28 91 245 274 274 261 255 267 272 269 243 190 114 32 280 275 293 279 243 270 291
4 4 1 3 14 56 198 200 202 203 197 203 215 221 230 234 217 203 165 98 111 267 261 180 133 116 115 123 219 204 175 148 140 97 310 284 300 320 313 322 345 20 71 60 35 61 82 128 151 200 262 231 170 282 279 198 336 324 344 25 47 32 19 70 183 256 220 141 229 249 247 257 279 292 266 262 245 146 29 337 294 302 328 328 301 296 301
17 15 15 24 31 51 90 135 150 148 166 186 203 219 236 240 214 199 168 99 117 237 274 149 151 139 140 167 193 195 160 131 109 87 66 311 285 231 242 337 49 17 34 90 67 68 104 208 189 178 252 269 71 316 266 247 265 256 183 100 74 57 27 135 189 224 202 192 235 266 260 260 275 282 264 263 298 15 358 319 310 324 329 326 321 310 305
38 37 41 44 50 72 89 103 115 123 138 152 176 209 238 226 193 186 161 88 109 205 267 1 198 219 220 202 194 191 158 131 120 111 80 344 276 185 154 85 90 16 27 84 112 120 135 262 240 146 232 295 319 132 252 251 219 177 143 149 208 176 172 180 182 205 200 185 211 280 288 263 228 223 252 283 333 331 318 309 315 322 319 318 320 314 310
56 56 58 59 67 81 91 100 108 121 126 116 131 174 76 152 190 186 176 112 106 108 337 0 82 125 342 334 171 146 59 86 109 127 140 193 215 128 73 352 297 74 50 66 179 200 174 256 271 168 198 263 247 172 272 280 252 188 173 199 217 182 179 230 210 190 166 119 115 312 292 255 174 109 341 295 304 311 310 310 315 315 313 315 317 313 314
59 59 62 67 75 83 92 101 106 112 113 96 94 158 79 85 153 170 190 165 115 101 241 217 74 62 70 57 97 133 112 99 110 156 162 187 202 128 108 256 223 164 151 156 168 236 212 214 256 254 209 247 262 227 233 295 304 269 194 181 221 194 186 241 254 208 145 145 214 232 271 261 180 131 297 274 271 298 310 313 311 311 313 315 313 312 315
59 60 63 67 75 82 87 97 103 100 90 66 27 110 114 111 119 126 127 100 92 88 105 117 91 79 89 73 38 104 122 93 45 135 133 131 175 156 139 160 178 185 191 146 136 261 245 198 206 241 242 252 264 238 196 196 299 296 260 129 261 218 197 198 233 228 215 230 236 249 289 296 235 184 248 278 291 300 304 303 302 308 315 317 315 314 314
61 62 66 69 75 80 81 84 90 89 84 74 67 100 123 124 118 111 104 97 90 82 88 105 92 72 69 48 36 74 102 58 10 113 110 110 145 199 154 146 178 206 194 145 175 196 193 194 186 164 236 232 211 275 286 236 261 282 300 307 287 253 189 151 220 267 274 264 266 286 308 306 304 284 265 277 290 298 305 308 308 311 313 312 314 313 313
65 67 71 73 76 82 84 85 86 83 83 86 85 96 114 119 118 113 104 98 96 88 70 69 64 51 11 17 54 62 353 311 235 166 98 109 122 274 267 236 189 75 321 223 192 142 129 202 180 119 245 233 175 173 284 275 251 235 329 316 304 307 13 252 255 285 314 299 296 313 313 304 309 317 312 305 306 310 316 317 312 313 314 314 316 316 315
70 72 74 77 82 89 92 91 90 86 84 88 92 99 110 112 119 128 104 76 107 121 98 8 342 89 71 3 10 317 319 303 208 188 208 227 155 108 295 283 146 168 257 252 159 95 79 250 148 143 228 253 228 215 248 267 263 261 355 310 294 315 347 318 275 278 286 277 283 297 296 290 298 316 323 324 324 323 323 320 315 316 317 316 316 318 318
72 80 83 83 88 97 101 101 97 89 80 75 76 84 97 92 109 131 114 88 91 103 99 30 280 248 248 312 315 322 334 335 173 176 234 272 250 89 341 352 26 206 325 43 94 121 127 140 119 141 210 257 300 184 219 253 274 324 302 264 264 318 327 303 302 304 287 283 300 315 312 301 306 325 328 325 324 323 321 320 319 319 318 317 318 319 319
67 83 92 93 96 106 111 111 103 89 73 62 62 65 69 83 104 122 120 101 58 55 80 139 280 284 250 219 310 346 353 26 129 132 336 308 146 135 351 3 14 24 50 48 40 90 93 75 3 193 211 237 157 147 225 260 272 50 291 271 295 352 335 320 348 334 311 307 319 327 323 310 312 322 322 318 316 316 315 316 318 319 319 319 319 318 318
69 82 97 102 103 114 120 113 101 83 60 50 59 70 69 71 75 65 38 40 109 111 124 157 235 63 122 179 319 337 354 15 76 109 77 60 111 152 151 18 39 73 83 80 51 83 98 139 221 211 209 262 45 249 293 356 52 31 284 267 270 2 341 345 345 313 294 297 307 315 310 297 300 309 311 311 313 315 315 316 317 315 316 319 319 318 320
70 77 91 102 107 123 134 114 83 12 357 0 28 81 68 60 61 55 42 49 90 104 108 109 61 61 100 292 298 312 347 0 28 102 103 88 137 176 204 1 139 138 115 105 112 121 162 200 209 217 233 153 168 265 320 41 66 266 259 247 238 241 260 297 300 287 283 289 299 306 302 294 298 302 303 306 315 317 315 315 314 313 316 318 317 316 316
67 69 75 82 91 104 111 348 312 303 307 300 279 42 39 36 36 31 27 45 95 113 114 109 104 321 319 311 302 317 336 2 25 63 137 193 213 210 215 225 193 147 86 67 99 161 213 256 302 295 282 188 123 149 139 112 202 264 267 280 298 297 290 289 286 281 285 289 290 290 287 285 289 293 293 300 312 315 313 312 313 314 316 317 316 313 313
58 60 64 67 71 74 68 52 40 18 352 306 231 73 61 4 338 351 10 49 90 112 105 97 90 330 351 10 11 355 347 351 358 334 250 234 239 218 199 228 257 148 109 80 131 180 185 230 327 312 323 33 85 122 132 101 304 284 295 320 331 322 311 301 292 283 285 292 295 291 281 272 280 299 309 314 317 317 313 308 311 313 313 313 313 310 310
38 40 48 55 57 62 66 64 57 49 45 55 76 84 92 52 342 338 345 77 67 104 101 79 44 332 335 339 340 357 348 284 313 337 289 215 189 162 153 330 308 174 138 122 76 308 220 193 161 334 351 40 73 90 91 100 205 278 307 326 324 315 310 304 302 297 293 301 313 317 313 308 305 310 313 315 316 316 313 311 313 315 315 314 312 311 312
5 6 20 29 20 16 21 23 25 29 39 60 72 75 70 51 28 15 24 98 52 71 104 95 74 342 297 283 303 340 348 302 326 3 356 225 165 128 22 10 24 17 34 129 153 246 242 129 100 29 336 30 77 87 82 166 228 263 301 311 303 301 300 294 294 299 302 310 317 317 312 310 311 313 314 313 313 314 314 313 314 315 316 317 317 318 320
340 336 335 330 336 343 338 340 350 347 346 41 64 56 43 39 35 30 31 132 133 60 58 87 98 322 324 349 343 353 23 4 322 348 346 297 122 108 1 347 18 28 355 319 150 271 334 43 99 113 332 0 56 87 9 270 259 275 298 298 291 296 298 293 296 302 306 312 308 293 288 295 303 311 314 312 313 316 317 316 317 317 318 318 318 320 321
335 329 316 306 313 320 319 329 346 339 338 67 64 23 15 16 31 40 44 62 83 40 13 50 78 71 5 353 324 301 17 12 295 262 250 291 356 93 124 30 15 23 45 272 60 52 11 1 122 108 347 338 45 118 270 281 288 304 311 307 311 323 325 320 318 314 308 310 307 299 298 302 305 308 311 312 316 321 322 321 321 320 318 317 316 317 317
326 324 318 309 306 300 290 303 358 353 0 16 332 337 347 341 25 63 63 56 54 72 150 75 64 94 84 339 298 291 347 345 302 304 6 342 339 8 73 81 58 300 66 61 45 34 12 128 107 62 347 244 161 219 276 288 294 300 306 307 311 320 318 309 308 309 309 308 304 300 302 307 308 309 312 314 317 321 321 320 320 319 317 316 317 316 317
320 322 318 309 307 310 283 229 21 355 336 318 314 332 3 63 102 87 70 46 38 49 83 91 81 168 173 274 288 331 351 321 302 349 349 299 279 341 50 83 159 263 16 32 21 214 353 35 90 114 219 206 203 254 266 270 276 283 297 304 302 304 304 299 299 307 313 317 321 323 323 323 321 320 319 318 318 320 319 319 318 317 315 314 314 314 314
322 324 319 310 349 20 19 294 338 337 326 314 321 5 32 62 67 43 6 10 16 21 52 80 92 304 7 315 290 341 355 309 334 11 340 256 294 353 24 84 168 216 10 343 264 191 34 19 56 105 252 274 303 280 259 251 260 276 290 297 297 301 304 299 304 317 325 329 333 334 332 331 329 328 327 326 324 324 325 323 320 317 315 313 313 313 312
328 326 326 0 65 134 242 319 334 333 328 326 27 72 14 21 49 25 332 357 14 0 24 58 90 247 47 0 305 337 42 40 1 354 327 277 328 329 324 0 343 58 40 347 267 83 42 352 21 49 282 299 340 327 282 275 296 299 296 297 300 302 301 298 303 311 313 314 318 319 319 320 319 319 321 321 320 321 323 322 320 320 318 316 315 314 312
340 350 5 45 27 313 313 327 331 331 347 22 40 69 31 24 47 67 329 29 32 346 2 57 165 229 87 54 293 306 33 49 16 286 270 273 264 193 63 12 287 49 38 304 273 68 82 217 355 49 15 321 332 325 305 312 320 309 303 306 308 309 310 309 308 309 308 309 313 316 314 310 307 307 309 311 312 316 318 319 319 317 315 314 314 313 311
347 6 358 321 317 321 324 335 348 14 76 50 31 44 44 14 3 23 49 45 20 308 294 57 25 329 344 56 213 259 338 22 90 136 131 299 294 75 57 297 297 70 27 259 266 67 85 93 355 1 255 312 323 320 323 333 335 328 325 323 321 321 322 320 318 321 322 319 317 318 316 310 306 305 305 304 306 311 315 317 317 314 313 313 312 309 309
338 333 323 311 317 329 343 17 27 31 48 53 35 28 13 357 6 10 16 38 8 297 300 41 21 296 287 270 193 219 264 6 36 83 83 309 296 86 90 308 5 53 227 241 9 55 65 55 358 307 298 321 330 332 338 342 341 336 331 329 328 328 327 325 325 326 326 322 318 316 313 308 305 304 304 307 311 315 318 319 317 314 314 313 309 306 313
349 344 347 348 357 8 17 16 15 32 50 46 36 22 356 356 18 16 331 310 355 354 319 318 332 322 304 236 199 228 248 343 21 87 102 306 310 62 60 24 12 89 230 3 57 55 81 141 27 323 321 332 338 340 343 342 336 331 330 330 330 327 324 324 326 324 323 322 319 316 313 309 304 303 306 311 316 319 320 319 317 315 313 312 308 308 318
17 32 42 39 8 14 20 351 356 46 51 25 39 71 13 340 333 311 303 308 323 340 326 329 353 338 303 270 89 347 300 331 62 76 36 334 8 61 57 295 255 250 356 28 55 68 236 214 256 313 328 337 339 341 343 339 333 331 329 327 326 325 324 327 328 325 323 323 321 319 317 313 307 306 311 317 322 324 321 317 316 315 314 311 309 313 322
23 11 31 35 2 0 28 0 358 39 54 17 120 146 156 282 269 249 252 261 265 297 319 338 22 267 267 270 27 56 301 346 32 27 327 11 25 28 233 236 254 41 41 16 17 15 349 325 322 331 337 338 337 337 337 333 329 328 324 321 324 328 331 333 331 328 325 324 323 322 318 313 310 313 317 320 324 326 320 316 317 318 315 312 313 322 330
80 65 74 74 12 344 56 58 16 28 78 213 206 179 187 227 244 242 241 244 273 287 297 294 256 243 270 293 336 40 23 33 32 321 78 74 38 280 239 206 34 38 39 20 17 18 340 320 325 332 332 329 329 329 329 328 326 325 323 323 327 331 331 331 330 327 325 323 322 320 317 314 316 320 321 323 325 325 321 320 321 319 314 314 324 334 337
75 55 76 84 37 6 43 72 22 43 172 193 197 200 217 248 262 254 243 234 250 272 287 285 257 240 260 296 347 350 358 40 55 305 346 82 151 290 349 52 35 30 55 28 358 330 310 315 324 328 326 326 327 327 326 327 327 327 328 329 329 330 329 329 328 327 326 324 322 320 319 320 324 327 326 324 322 321 322 323 321 317 316 326 339 341 339
88 39 59 94 116 11 24 110 139 90 22 266 233 235 257 287 295 282 270 260 272 298 307 318 339 327 296 323 37 10 325 14 49 318 315 87 68 334 5 24 347 322 60 27 334 315 312 318 321 320 321 323 324 323 324 328 330 331 331 331 330 329 327 325 324 326 327 325 322 321 324 328 330 330 327 321 318 320 323 321 316 316 326 343 346 341 337
75 71 60 85 133 166 119 96 91 53 325 313 323 350 11 4 295 280 295 333 336 310 282 252 63 352 297 313 49 45 348 354 29 342 6 38 42 349 17 29 357 333 332 334 322 315 312 313 316 317 319 323 323 321 325 332 332 330 329 329 328 326 323 322 324 326 326 324 323 325 331 333 331 327 324 320 318 318 318 316 317 326 342 347 342 336 332
55 64 54 39 41 14 3 50 58 2 321 332 347 353 353 340 302 305 353 7 334 314 334 47 76 345 318 11 41 34 346 306 50 56 37 30 24 11 16 10 339 314 312 316 315 310 308 311 317 320 320 321 322 323 328 331 329 328 328 328 326 324 323 324 325 324 324 325 329 332 333 333 329 324 320 318 315 313 314 320 330 340 341 338 334 331 329
46 62 67 45 53 47 0 66 87 317 300 314 309 298 317 318 285 322 350 352 343 358 18 20 316 22 33 33 28 3 315 0 53 51 41 32 59 50 0 313 299 306 314 312 304 301 306 315 325 324 321 321 325 329 329 327 327 328 328 326 324 324 326 326 325 324 326 330 334 334 331 329 326 323 319 316 315 316 322 332 338 338 334 331 330 330 327
56 74 69 28 61 88 92 82 92 134 278 269 251 272 337 347 301 318 336 352 27 44 7 307 85 55 44 38 351 352 9 35 38 30 11 327 83 42 308 293 298 310 313 308 306 310 313 316 318 315 314 318 326 328 327 326 326 328 329 327 326 327 327 326 326 328 330 332 333 332 328 325 323 322 320 320 323 331 337 335 332 332 331 329 326 325 322